Weather History for KCKC - October, 2012

Change the Weather History Date:

Sunday, October 7, 2012

  Actual Average Record
Temperature  
Mean Temperature 36 °F -  
Max Temperature 46 °F 52 °F 80 °F (2003)
Min Temperature 26 °F 35 °F 21 °F (2001)
Degree Days  
Heating Degree Days 29    
Moisture  
Dew Point 22 °F    
Average Humidity 59    
Maximum Humidity 80    
Minimum Humidity 29    
Precipitation  
Precipitation 0.00 in - - ()
Sea Level Pressure  
Sea Level Pressure 29.92 in    
Wind  
Wind Speed 7 mph (SW)    
Max Wind Speed 12 mph    
Max Gust Speed 21 mph    
Visibility 10 miles    
Events      
Averages and records for this station are not official NWS values.
T = Trace of Precipitation, MM = Missing Value Source: NWS Daily Summary

Daily Weather History Graph

Daily Weather History Graph

Search for Another Location

Airport or City:

Trip Planner

Search our weather history database for the weather conditions in past years. The results will help you decide how hot, cold, wet, or windy it might be!

Date:

Astronomy

Oct. 07, 2012 Rise Set
Actual Time 7:09 AM CDT 6:27 PM CDT
Civil Twilight 6:38 AM CDT 6:58 PM CDT
Nautical Twilight 6:03 AM CDT 7:34 PM CDT
Astronomical Twilight 5:26 AM CDT 8:10 PM CDT
Moon 11:22 PM CDT 2:05 PM CDT
Length of Visible Light 12h 19m
Length of Day
11h 17m
Waning Gibbous, 56% of the Moon is Illuminated
Oct 7
Waning Gibbous
Oct 8
Last Quarter
Oct 15
New
Oct 21
First Quarter
Oct 29
Full

Hourly Weather History & Observations

Time (CDT) Temp. Windchill Dew Point Humidity Pressure Visibility Wind Dir Wind Speed Gust Speed Precip Events Conditions
12:14 AM 28.4 °F 23.3 °F 21.2 °F 74% 30.06 in 10.0 mi WSW 4.6 mph - N/A   Clear
12:33 AM 28.4 °F 22.2 °F 21.2 °F 74% 30.06 in 10.0 mi West 5.8 mph - N/A   Clear
12:53 AM 28.4 °F 22.2 °F 21.2 °F 74% 30.06 in 10.0 mi West 5.8 mph - N/A   Clear
1:14 AM 28.4 °F 22.2 °F 21.2 °F 74% 30.06 in 10.0 mi West 5.8 mph - N/A   Clear
1:33 AM 28.4 °F 21.2 °F 21.2 °F 74% 30.05 in 10.0 mi West 6.9 mph - N/A   Clear
1:54 AM 28.4 °F 22.2 °F 21.2 °F 74% 30.05 in 10.0 mi West 5.8 mph - N/A   Clear
2:14 AM 28.4 °F 22.2 °F 21.2 °F 74% 30.05 in 10.0 mi West 5.8 mph - N/A   Clear
2:33 AM 26.6 °F 21.2 °F 21.2 °F 80% 30.04 in 10.0 mi West 4.6 mph - N/A   Clear
2:54 AM 26.6 °F 19.1 °F 21.2 °F 80% 30.04 in 10.0 mi West 6.9 mph - N/A   Clear
3:14 AM 28.4 °F 22.2 °F 21.2 °F 74% 30.03 in 10.0 mi West 5.8 mph - N/A   Clear
3:33 AM 26.6 °F 17.5 °F 21.2 °F 80% 30.02 in 10.0 mi West 9.2 mph - N/A   Clear
3:54 AM 26.6 °F 17.5 °F 21.2 °F 80% 30.01 in 10.0 mi West 9.2 mph - N/A   Clear
4:14 AM 26.6 °F 18.2 °F 21.2 °F 80% 30.01 in 10.0 mi West 8.1 mph - N/A   Clear
4:33 AM 26.6 °F 18.2 °F 21.2 °F 80% 30.00 in 10.0 mi West 8.1 mph - N/A   Clear
4:54 AM 28.4 °F 19.7 °F 21.2 °F 74% 30.00 in 10.0 mi West 9.2 mph - N/A   Clear
5:14 AM 28.4 °F 19.7 °F 21.2 °F 74% 30.00 in 10.0 mi WSW 9.2 mph - N/A   Clear
5:33 AM 28.4 °F 20.4 °F 21.2 °F 74% 30.00 in 10.0 mi West 8.1 mph - N/A   Clear
5:54 AM 26.6 °F 21.2 °F 21.2 °F 80% 30.00 in 10.0 mi WSW 4.6 mph - N/A   Clear
6:14 AM 26.6 °F 21.2 °F 21.2 °F 80% 29.99 in 10.0 mi WSW 4.6 mph - N/A   Clear
6:33 AM 26.6 °F 22.6 °F 21.2 °F 80% 29.99 in 10.0 mi WSW 3.5 mph - N/A   Clear
6:54 AM 26.6 °F 22.6 °F 21.2 °F 80% 29.98 in 10.0 mi WSW 3.5 mph - N/A   Clear
7:13 AM 26.6 °F 21.2 °F 21.2 °F 80% 29.98 in 10.0 mi WSW 4.6 mph - N/A   Clear
7:34 AM 26.6 °F 21.2 °F 21.2 °F 80% 29.98 in 10.0 mi WSW 4.6 mph - N/A   Clear
7:54 AM 26.6 °F 20.0 °F 21.2 °F 80% 29.97 in 10.0 mi WSW 5.8 mph - N/A   Clear
8:13 AM 28.4 °F 23.3 °F 21.2 °F 74% 29.97 in 10.0 mi WSW 4.6 mph - N/A   Clear
8:34 AM 28.4 °F 23.3 °F 21.2 °F 74% 29.97 in 10.0 mi WSW 4.6 mph - N/A   Clear
8:54 AM 30.2 °F 25.4 °F 21.2 °F 69% 29.97 in 10.0 mi WSW 4.6 mph - N/A   Clear
9:13 AM 30.2 °F 25.4 °F 21.2 °F 69% 29.96 in 10.0 mi SW 4.6 mph - N/A   Clear
9:34 AM 35.6 °F 31.7 °F 21.2 °F 56% 29.95 in 10.0 mi SW 4.6 mph - N/A   Clear
9:54 AM 35.6 °F 28.6 °F 21.2 °F 56% 29.94 in 10.0 mi SW 9.2 mph - N/A   Clear
10:13 AM 39.2 °F 33.6 °F 21.2 °F 49% 29.94 in 10.0 mi SW 8.1 mph - N/A   Clear
10:34 AM 41.0 °F 35.8 °F 19.4 °F 42% 29.94 in 10.0 mi SW 8.1 mph - N/A   Clear
10:54 AM 42.8 °F 38.0 °F 19.4 °F 39% 29.93 in 10.0 mi SSW 8.1 mph 16.1 mph N/A   Clear
11:13 AM 44.6 °F 39.7 °F 17.6 °F 34% 29.92 in 10.0 mi SSW 9.2 mph 18.4 mph N/A   Clear
11:34 AM 44.6 °F 39.2 °F 15.8 °F 31% 29.92 in 10.0 mi SSW 10.4 mph 20.7 mph N/A   Clear
11:53 AM 44.6 °F 39.2 °F 14.0 °F 29% 29.91 in 10.0 mi SSW 10.4 mph 19.6 mph N/A   Clear
12:14 PM 46.4 °F 42.9 °F 15.8 °F 29% 29.91 in 10.0 mi SW 6.9 mph 18.4 mph N/A   Clear
12:34 PM 44.6 °F 39.7 °F 24.8 °F 46% 29.91 in 10.0 mi SSW 9.2 mph 17.3 mph N/A   Scattered Clouds
12:53 PM 44.6 °F 39.7 °F 24.8 °F 46% 29.90 in 10.0 mi SSW 9.2 mph 17.3 mph N/A   Scattered Clouds
1:14 PM 42.8 °F 37.0 °F 24.8 °F 49% 29.90 in 10.0 mi SSW 10.4 mph - N/A   Overcast
1:34 PM 42.8 °F 38.0 °F 24.8 °F 49% 29.89 in 10.0 mi South 8.1 mph - N/A   Overcast
1:53 PM 42.8 °F 36.6 °F 26.6 °F 53% 29.89 in 10.0 mi South 11.5 mph 17.3 mph N/A   Overcast
2:14 PM 42.8 °F 37.0 °F 26.6 °F 53% 29.88 in 10.0 mi South 10.4 mph 16.1 mph N/A   Mostly Cloudy
2:34 PM 44.6 °F 40.2 °F 26.6 °F 49% 29.87 in 10.0 mi South 8.1 mph - N/A   Scattered Clouds
2:53 PM 44.6 °F 39.2 °F 24.8 °F 46% 29.87 in 10.0 mi SSW 10.4 mph - N/A   Mostly Cloudy
3:14 PM 42.8 °F 37.5 °F 24.8 °F 49% 29.87 in 10.0 mi South 9.2 mph 18.4 mph N/A   Mostly Cloudy
3:34 PM 42.8 °F 38.0 °F 24.8 °F 49% 29.86 in 10.0 mi SSW 8.1 mph - N/A   Scattered Clouds
3:53 PM 42.8 °F 39.3 °F 24.8 °F 49% 29.86 in 10.0 mi South 5.8 mph - N/A   Scattered Clouds
4:14 PM 42.8 °F 38.0 °F 23.0 °F 46% 29.85 in 10.0 mi South 8.1 mph - N/A   Scattered Clouds
4:33 PM 42.8 °F 38.6 °F 24.8 °F 49% 29.85 in 10.0 mi South 6.9 mph - N/A   Clear
4:54 PM 42.8 °F 40.1 °F 24.8 °F 49% 29.84 in 10.0 mi South 4.6 mph - N/A   Scattered Clouds
5:13 PM 42.8 °F 40.1 °F 24.8 °F 49% 29.84 in 10.0 mi South 4.6 mph - N/A   Overcast
5:33 PM 41.0 °F 39.0 °F 24.8 °F 53% 29.84 in 10.0 mi South 3.5 mph - N/A   Overcast
5:54 PM 41.0 °F 37.1 °F 24.8 °F 53% 29.84 in 10.0 mi South 5.8 mph - N/A   Mostly Cloudy
6:13 PM 41.0 °F 35.8 °F 24.8 °F 53% 29.84 in 10.0 mi SSW 8.1 mph - N/A   Overcast
6:33 PM 39.2 °F 33.6 °F 24.8 °F 56% 29.84 in 10.0 mi SSW 8.1 mph - N/A   Overcast
6:54 PM 39.2 °F 35.0 °F 24.8 °F 56% 29.84 in 10.0 mi SSW 5.8 mph - N/A   Overcast
7:13 PM 39.2 °F 35.9 °F 24.8 °F 56% 29.84 in 10.0 mi SSW 4.6 mph - N/A   Overcast
7:33 PM 39.2 °F 35.0 °F 23.0 °F 52% 29.84 in 10.0 mi SSW 5.8 mph - N/A   Mostly Cloudy
7:54 PM 39.2 °F 33.0 °F 21.2 °F 49% 29.84 in 10.0 mi SSW 9.2 mph - N/A   Scattered Clouds
8:14 PM 39.2 °F 35.0 °F 21.2 °F 49% 29.84 in 10.0 mi SSW 5.8 mph - N/A   Scattered Clouds
8:34 PM 39.2 °F 35.9 °F 21.2 °F 49% 29.84 in 10.0 mi SSW 4.6 mph - N/A   Scattered Clouds
8:53 PM 39.2 °F 34.2 °F 21.2 °F 49% 29.84 in 10.0 mi SSW 6.9 mph - N/A   Scattered Clouds
9:14 PM 39.2 °F 34.2 °F 19.4 °F 45% 29.84 in 10.0 mi SSW 6.9 mph - N/A   Overcast
9:33 PM 39.2 °F 33.6 °F 19.4 °F 45% 29.83 in 10.0 mi SSW 8.1 mph - N/A   Overcast
9:54 PM 39.2 °F 34.2 °F 19.4 °F 45% 29.84 in 10.0 mi South 6.9 mph - N/A   Mostly Cloudy
10:14 PM 39.2 °F 33.6 °F 19.4 °F 45% 29.83 in 10.0 mi SSW 8.1 mph - N/A   Scattered Clouds
10:34 PM 39.2 °F 33.0 °F 17.6 °F 42% 29.83 in 10.0 mi SSW 9.2 mph 16.1 mph N/A   Overcast
10:53 PM 39.2 °F 33.0 °F 17.6 °F 42% 29.82 in 10.0 mi SSW 9.2 mph - N/A   Overcast
11:14 PM 39.2 °F 33.0 °F 19.4 °F 45% 29.82 in 10.0 mi SSW 9.2 mph 16.1 mph N/A   Overcast
11:34 PM 39.2 °F 34.2 °F 19.4 °F 45% 29.81 in 10.0 mi SSW 6.9 mph 16.1 mph N/A   Overcast
11:53 PM 37.4 °F 31.4 °F 19.4 °F 48% 29.81 in 10.0 mi SSW 8.1 mph - N/A   Mostly Cloudy